Regional Weather Roundup
Issued by NWS Albany, NY

Home | Current Version | Previous Version | Graphics & Text | Print | Product List | Glossary Off
Versions: 1 2 3 4 5 6 7 8 9 10 11 12 13 14 15 16 17 18 19 20 21 22 23 24 25 26 27 28

000
ASUS41 KALY 192210
RWRALY

NEW YORK STATE HOURLY WEATHER ROUNDUP
NATIONAL WEATHER SERVICE ALBANY NY
600 PM EDT SAT AUG 19 2017

NOTE: "FAIR" INDICATES FEW OR NO CLOUDS BELOW 12,000 FEET WITH NO
SIGNIFICANT WEATHER AND/OR NO OBSTRUCTIONS TO VISIBILITY.

NYZ032-033-038>043-046>054-057>066-NYZ062>081-082-084-192300-
EAST


CITY           SKY/WX    TMP DP  RH WIND       PRES   REMARKS
ALBANY         MOSUNNY   83  63  50 NW8       29.80F
GLENS FALLS    SUNNY     80  60  50 W9        29.79S
POUGHKEEPSIE   SUNNY     84  63  49 W8        29.81S
NEWBURGH       MOSUNNY   82  64  54 W12G20    29.84F
MONTGOMERY     SUNNY     83  63  50 W6        29.82F
WHITE PLAINS   MOSUNNY   84  63  49 W5        29.83S
ISLIP          MOSUNNY   84  66  54 SW13      29.82S
NEW YORK CITY  MOSUNNY   87  63  44 W12       29.81F
CENTRAL PARK   SUNNY     83  64  52 CALM      29.85S
$$

NYZ005>009-017-018-044>046-055-056-192300-
CENTRAL


CITY           SKY/WX    TMP DP  RH WIND       PRES   REMARKS
FULTON         PTSUNNY   77  60  55 SW10      29.81F
SYRACUSE       CLOUDY    78  58  49 W12       29.80F
ROME           SUNNY     78  59  51 W9        29.82F
ELMIRA         MOSUNNY   70  64  81 CALM      29.85S
BINGHAMTON     CLOUDY    72  61  68 SW5       29.86F
MONTICELLO     SUNNY     78  60  53 VRB5      29.88F
$$

NYZ026>034-041>043-087-192300-
NORTH


CITY           SKY/WX    TMP DP  RH WIND       PRES   REMARKS
WATERTOWN      PTSUNNY   72  63  73 SW8       29.80F
FORT DRUM      NOT AVBL
OGDENSBURG     FAIR      74  62  65 SW15G26   29.78S
MASSENA        CLOUDY    73  62  68 SW12G22   29.77S
SARANAC LAKE   MOSUNNY   69  58  67 VRB7      29.83R
PLATTSBURGH    MOSUNNY   80  61  52 W8        29.74R
$$

NYZ001>004-010>016-019>021-085-192300-
WEST


CITY           SKY/WX    TMP DP  RH WIND       PRES   REMARKS
NIAGARA FALLS  CLOUDY    75  59  57 NW18G25   29.84S
BUFFALO        CLOUDY    73  62  68 SW16      29.85S
DUNKIRK        MOSUNNY   73  63  70 SW17G24   29.89R
JAMESTOWN      MOSUNNY   69  59  70 W14G23    29.93R
WELLSVILLE     PTSUNNY   72  58  61 W10       29.92S
ROCHESTER      MOSUNNY   74  58  57 W13G20    29.84S
PENN YAN       SUNNY     78  59  51 W6        29.85F
$$

             KEY
       WCI = WIND CHILL INDEX
       VSB = VISIBILITY
       HX  = HEAT INDEX
$$




USA.gov is the U.S. government's official web portal to all federal, state and local government web resources and services.